TimeEST,TemperatureF,Dew PointF,Humidity,Sea Level PressureIn,VisibilityMPH,Wind Direction,Wind SpeedMPH,Gust SpeedMPH,PrecipitationIn,Events,Conditions,WindDirDegrees,DateUTC
12:53 AM,43.0,41.0,93,30.33,-9999.0,Calm,Calm,-,N/A,,Unknown,0,2013-01-05 05:53:00
1:53 AM,41.0,39.9,96,30.32,-9999.0,Calm,Calm,-,N/A,,Unknown,0,2013-01-05 06:53:00
2:53 AM,39.9,39.0,97,30.31,-9999.0,Calm,Calm,-,N/A,,Unknown,0,2013-01-05 07:53:00
3:53 AM,41.0,39.9,96,30.30,-9999.0,Calm,Calm,-,N/A,,Unknown,0,2013-01-05 08:53:00
4:53 AM,37.9,36.0,93,30.30,-9999.0,Calm,Calm,-,N/A,,Unknown,0,2013-01-05 09:53:00
5:53 AM,37.0,36.0,96,30.32,-9999.0,Calm,Calm,-,N/A,,Unknown,0,2013-01-05 10:53:00
6:53 AM,37.0,35.1,93,30.33,-9999.0,NNE,4.6,-,N/A,,Unknown,30,2013-01-05 11:53:00
7:53 AM,39.0,37.0,93,30.34,-9999.0,Calm,Calm,-,N/A,,Unknown,0,2013-01-05 12:53:00
8:53 AM,44.1,39.0,82,30.34,-9999.0,NE,4.6,-,N/A,,Unknown,50,2013-01-05 13:53:00
9:53 AM,48.9,37.9,66,30.35,-9999.0,Variable,4.6,-,N/A,,Unknown,0,2013-01-05 14:53:00
10:53 AM,50.0,37.9,63,30.34,-9999.0,NE,5.8,-,N/A,,Unknown,50,2013-01-05 15:53:00
11:53 AM,57.9,37.0,46,30.32,-9999.0,NE,8.1,-,N/A,,Unknown,50,2013-01-05 16:53:00
12:53 PM,60.1,37.0,42,30.30,-9999.0,NNE,6.9,-,N/A,,Unknown,20,2013-01-05 17:53:00
1:53 PM,63.0,37.0,38,30.26,-9999.0,NE,6.9,-,N/A,,Unknown,40,2013-01-05 18:53:00
2:53 PM,66.0,39.0,37,30.25,-9999.0,ENE,5.8,-,N/A,,Unknown,70,2013-01-05 19:53:00
3:53 PM,66.0,39.0,37,30.25,-9999.0,NNE,5.8,-,N/A,,Unknown,20,2013-01-05 20:53:00
4:53 PM,62.1,43.0,50,30.25,-9999.0,Calm,Calm,-,N/A,,Unknown,0,2013-01-05 21:53:00
5:53 PM,60.1,44.1,55,30.27,-9999.0,Calm,Calm,-,N/A,,Unknown,0,2013-01-05 22:53:00
6:53 PM,57.9,46.0,65,30.30,-9999.0,Calm,Calm,-,N/A,,Unknown,0,2013-01-05 23:53:00
7:53 PM,55.9,46.9,72,30.27,-9999.0,NE,3.5,-,N/A,,Unknown,40,2013-01-06 00:53:00
8:53 PM,55.9,46.0,69,30.29,-9999.0,North,3.5,-,N/A,,Unknown,350,2013-01-06 01:53:00
9:53 PM,55.9,45.0,67,30.28,-9999.0,Calm,Calm,-,N/A,,Unknown,0,2013-01-06 02:53:00
10:53 PM,55.9,45.0,67,30.29,-9999.0,Calm,Calm,-,N/A,,Unknown,0,2013-01-06 03:53:00
11:53 PM,55.9,43.0,62,30.26,-9999.0,NNE,6.9,-,N/A,,Unknown,20,2013-01-06 04:53:00